This is the latest recevied weather packets stored in our database for station/object SQ5LTL-2. If no packets are shown the sender has not sent any weather packets the latest 10 day(s).
| Time | Temp. | Humidity | Pressure | Rain* | Wind** | Luminosity | Snow |
|---|---|---|---|---|---|---|---|
| 1778049626 | 20° C | 44% | 1007 hPa | 0 mm | - | 238 W/m² | - |
| 1778049324 | 19.44° C | 44% | 1007 hPa | 0 mm | - | 269 W/m² | - |
| 1778049023 | 18.89° C | 46% | 1007.1 hPa | 0 mm | - | 242 W/m² | - |
| 1778048722 | 19.44° C | 46% | 1007 hPa | 0 mm | - | 171 W/m² | - |
| 1778048421 | 19.44° C | 45% | 1007 hPa | 0 mm | - | 212 W/m² | - |
| 1778048119 | 19.44° C | 45% | 1007.2 hPa | 0 mm | - | 229 W/m² | - |
| 1778047817 | 18.89° C | 46% | 1007.2 hPa | 0 mm | - | 260 W/m² | - |
| 1778047536 | 18.33° C | 45% | 1007.2 hPa | 0 mm | - | 215 W/m² | - |
| 1778047235 | 18.89° C | 44% | 1007.1 hPa | 0 mm | - | 232 W/m² | - |
| 1778046933 | 18.89° C | 45% | 1007.2 hPa | 0 mm | - | 304 W/m² | - |
| 1778046631 | 18.33° C | 45% | 1007.3 hPa | 0 mm | - | 278 W/m² | - |
| 1778046330 | 17.78° C | 46% | 1007.2 hPa | 0 mm | - | 230 W/m² | - |
| 1778046028 | 18.33° C | 46% | 1007.2 hPa | 0 mm | - | 187 W/m² | - |
| 1778045728 | 17.78° C | 46% | 1007.4 hPa | 0 mm | - | 153 W/m² | - |
| 1778045426 | 17.78° C | 48% | 1007.3 hPa | 0 mm | - | 138 W/m² | - |
| 1778045125 | 17.22° C | 48% | 1007.3 hPa | 0 mm | - | 128 W/m² | - |
| 1778044822 | 17.22° C | 49% | 1007.4 hPa | 0 mm | - | 120 W/m² | - |
| 1778044522 | 16.67° C | 49% | 1007.3 hPa | 0 mm | - | 113 W/m² | - |
| 1778044219 | 16.67° C | 50% | 1007.3 hPa | 0 mm | - | 105 W/m² | - |
| 1778043917 | 16.67° C | 50% | 1007.5 hPa | 0 mm | - | 98 W/m² | - |
| 1778043616 | 16.11° C | 50% | 1007.6 hPa | 0 mm | - | 92 W/m² | - |
| 1778043335 | 16.67° C | 50% | 1007.6 hPa | 0 mm | - | 85 W/m² | - |
| 1778043034 | 16.11° C | 51% | 1007.7 hPa | 0 mm | - | 78 W/m² | - |
| 1778042733 | 16.67° C | 52% | 1007.7 hPa | 0 mm | - | 73 W/m² | - |
| 1778042430 | 16.11° C | 52% | 1007.7 hPa | 0 mm | - | 67 W/m² | - |
* Rain latest hour (hover to see other rain measurements)
** Current wind speed in m/s (hover to see current wind gust speed)